Date String (YYYY-MM-DD hh:mm:ss) UTC,Instrument flags,absolute air pressure of the measurement (hPa),sample flow rate (lpm),inlet stack bypass flow (lpm),air temperature of the measurement (°C),ambient temperature measured by the external sensor (°C),aerosol sample conditioner tube jacket temperature (°C),OPC LED temperature (°C),internal box temperature (°C),relative humidity of the measurement (%),span deviation,mass concentration of particles derived from Lorenz-Mie calculation of OPC scattering (μg/m³),mass concentration of particles derived from Lorenz-Mie calculation of OPC scattering (μg/m³),mass concentration of particles derived from Lorenz-Mie calculation of OPC scattering (μg/m³)
DateTimeUTC,F1_M11,P_M11,Q1_M11,Q2_M11,T1_M11,T2_M11,T3_M11,T4_M11,T5_M11,U1_M11,ZSPAN_M11,X0_M11,X2_M11,X1_M11
2024-01-25 02:00:00,SystemResetWarning,0827.0,4.99,000.00,023.9,022.7,000.0,032.3,025.2,15.3,0003.1,0013.52,0007.07,0006.39
2024-01-25 02:01:00,SystemResetWarning,0826.9,4.99,000.00,023.9,022.7,000.0,032.3,025.2,15.3,0003.0,0012.79,0007.03,0006.40
2024-01-25 02:02:00,SystemResetWarning,0827.0,5.00,000.00,023.9,022.7,000.0,032.3,025.2,15.3,0002.6,0012.51,0007.00,0006.40
2024-01-25 02:03:00,SystemResetWarning,0826.9,5.00,000.00,023.9,022.7,000.0,032.3,025.2,15.3,0002.7,0012.57,0006.99,0006.42
2024-01-25 02:04:00,SystemResetWarning,0826.9,5.00,000.00,023.9,022.7,000.0,032.3,025.2,15.3,0002.9,0012.31,0007.00,0006.43
2024-01-25 02:05:00,SystemResetWarning,0827.0,5.00,000.00,023.9,022.7,000.0,032.3,025.2,15.2,0003.6,0012.36,0007.04,0006.43
2024-01-25 02:06:00,SystemResetWarning,0826.9,5.00,000.00,023.9,022.7,000.0,032.3,025.2,15.3,0003.7,0013.63,0007.06,0006.45
2024-01-25 02:07:00,SystemResetWarning,0827.0,5.00,000.00,023.9,022.7,000.0,032.3,025.2,15.3,0003.7,0014.26,0007.04,0006.44
2024-01-25 02:08:00,SystemResetWarning,0827.0,5.00,000.00,023.9,022.7,000.0,032.3,025.2,15.3,0003.5,0014.32,0007.02,0006.44
2024-01-25 02:09:00,SystemResetWarning,0827.0,5.00,000.00,023.9,022.7,000.0,032.3,025.2,15.3,0003.8,0014.76,0007.05,0006.46
2024-01-25 02:10:00,SystemResetWarning,0826.9,5.00,000.00,023.9,022.7,000.0,032.3,025.2,15.3,0004.1,0014.68,0007.10,0006.49
2024-01-25 02:11:00,SystemResetWarning,0826.9,4.99,000.00,023.9,022.7,000.0,032.2,025.2,15.3,0004.0,0014.16,0007.17,0006.53
2024-01-25 02:12:00,SystemResetWarning,0826.9,5.00,000.00,023.8,022.7,000.0,032.2,025.2,15.3,0003.9,0014.79,0007.23,0006.55
2024-01-25 02:13:00,SystemResetWarning,0826.9,5.00,000.00,023.8,022.6,000.0,032.2,025.2,15.3,0004.4,0015.37,0007.26,0006.56
2024-01-25 02:14:00,SystemResetWarning,0826.9,5.00,000.00,023.8,022.6,000.0,032.2,025.2,15.3,0004.5,0015.65,0007.26,0006.54
2024-01-25 02:15:00,SystemResetWarning,0826.9,5.01,000.00,023.8,022.6,000.0,032.2,025.2,15.3,0004.3,0015.66,0007.22,0006.53
2024-01-25 02:16:00,SystemResetWarning,0826.9,5.01,000.00,023.8,022.6,000.0,032.2,025.2,15.3,0004.0,0016.08,0007.12,0006.51
2024-01-25 02:17:00,SystemResetWarning,0826.9,5.00,000.00,023.8,022.6,000.0,032.2,025.1,15.3,0003.5,0015.92,0007.09,0006.50
2024-01-25 02:18:00,SystemResetWarning,0826.9,5.00,000.00,023.8,022.6,000.0,032.2,025.1,15.3,0003.2,0015.32,0007.11,0006.50
2024-01-25 02:19:00,SystemResetWarning,0827.0,5.00,000.00,023.8,022.6,000.0,032.2,025.1,15.3,0003.2,0015.99,0007.17,0006.51
2024-01-25 02:20:00,SystemResetWarning,0827.0,5.00,000.00,023.8,022.6,000.0,032.2,025.2,15.3,0003.0,0015.79,0007.18,0006.52
2024-01-25 02:21:00,SystemResetWarning,0826.9,5.00,000.00,023.8,022.6,000.0,032.2,025.1,15.3,0003.3,0015.82,0007.17,0006.52
2024-01-25 02:22:00,SystemResetWarning,0826.9,4.99,000.00,023.8,022.6,000.0,032.2,025.1,15.3,0003.1,0017.03,0007.15,0006.52
2024-01-25 02:23:00,SystemResetWarning,0826.9,5.00,000.00,023.8,022.6,000.0,032.2,025.1,15.3,0003.2,0017.00,0007.17,0006.52
2024-01-25 02:24:00,SystemResetWarning,0826.9,5.00,000.00,023.8,022.6,000.0,032.2,025.1,15.3,0002.8,0017.47,0007.19,0006.53
2024-01-25 02:25:00,SystemResetWarning,0826.9,5.01,000.00,023.8,022.6,000.0,032.2,025.1,15.3,0002.7,0017.20,0007.18,0006.54
2024-01-25 02:26:00,SystemResetWarning,0827.0,5.01,000.00,023.8,022.6,000.0,032.2,025.1,15.4,0002.5,0016.65,0007.19,0006.54
2024-01-25 02:27:00,SystemResetWarning,0827.0,5.01,000.00,023.8,022.6,000.0,032.1,025.1,15.3,0002.6,0015.80,0007.22,0006.56
2024-01-25 02:28:00,SystemResetWarning,0826.9,5.01,000.00,023.8,022.6,000.0,032.1,025.1,15.4,0003.2,0015.14,0007.21,0006.56
2024-01-25 02:29:00,SystemResetWarning,0826.9,5.00,000.00,023.8,022.6,000.0,032.1,025.1,15.4,0003.4,0015.41,0007.20,0006.57
2024-01-25 02:30:00,SystemResetWarning,0827.0,5.00,000.00,023.7,022.6,000.0,032.1,025.1,15.4,0003.3,0014.93,0007.17,0006.57
2024-01-25 02:31:00,SystemResetWarning,0827.0,4.99,000.00,023.7,022.6,000.0,032.1,025.1,15.4,0003.2,0014.83,0007.19,0006.56
2024-01-25 02:32:00,SystemResetWarning,0827.0,5.00,000.00,023.7,022.6,000.0,032.1,025.1,15.4,0003.0,0014.78,0007.20,0006.54
2024-01-25 02:33:00,SystemResetWarning,0827.0,5.00,000.00,023.7,022.6,000.0,032.1,025.1,15.4,0003.2,0013.34,0007.19,0006.54
2024-01-25 02:34:00,SystemResetWarning,0826.9,5.00,000.00,023.7,022.6,000.0,032.1,025.1,15.5,0002.9,0013.07,0007.18,0006.55
2024-01-25 02:35:00,SystemResetWarning,0827.0,5.00,000.00,023.7,022.6,000.0,032.1,025.1,15.5,0002.8,0012.51,0007.17,0006.55
2024-01-25 02:36:00,SystemResetWarning,0827.0,5.00,000.00,023.7,022.6,000.0,032.1,025.1,15.5,0002.5,0013.22,0007.20,0006.57
2024-01-25 02:37:00,SystemResetWarning,0827.0,4.99,000.00,023.7,022.6,000.0,032.1,025.1,15.5,0002.7,0013.31,0007.23,0006.58
2024-01-25 02:38:00,SystemResetWarning,0827.0,4.99,000.00,023.7,022.7,000.0,032.1,025.0,15.5,0002.8,0013.15,0007.26,0006.60
2024-01-25 02:39:00,SystemResetWarning,0827.0,5.00,000.00,023.7,022.7,000.0,032.1,025.0,15.5,0002.5,0012.89,0007.30,0006.65
2024-01-25 02:40:00,SystemResetWarning,0827.0,5.00,000.00,023.7,022.7,000.0,032.1,025.0,15.5,0002.5,0012.49,0007.35,0006.70
2024-01-25 02:41:00,SystemResetWarning,0827.0,5.00,000.00,023.7,022.6,000.0,032.1,025.0,15.6,0002.7,0012.52,0007.40,0006.74
2024-01-25 02:42:00,SystemResetWarning,0827.0,5.00,000.00,023.7,022.6,000.0,032.1,025.0,15.6,0002.8,0012.24,0007.37,0006.79
2024-01-25 02:43:00,SystemResetWarning,0827.0,5.00,000.00,023.7,022.6,000.0,032.1,025.0,15.6,0002.8,0012.52,0007.43,0006.85
2024-01-25 02:44:00,SystemResetWarning,0827.0,5.00,000.00,023.7,022.6,000.0,032.1,025.0,15.6,0002.8,0012.76,0007.48,0006.90
2024-01-25 02:45:00,SystemResetWarning,0827.0,5.00,000.00,023.7,022.6,000.0,032.0,025.0,15.6,0003.1,0012.83,0007.48,0006.92
2024-01-25 02:46:00,SystemResetWarning,0827.0,5.00,000.00,023.7,022.6,000.0,032.0,025.0,15.6,0003.5,0013.29,0007.50,0006.94
2024-01-25 02:47:00,SystemResetWarning,0827.0,5.00,000.00,023.7,022.5,000.0,032.0,025.0,15.5,0004.1,0013.06,0007.48,0006.93
2024-01-25 02:48:00,SystemResetWarning,0827.0,5.00,000.00,023.7,022.5,000.0,032.0,025.0,15.5,0004.0,0013.10,0007.50,0006.93
2024-01-25 02:49:00,SystemResetWarning,0827.0,5.00,000.00,023.7,022.5,000.0,032.0,025.0,15.6,0003.9,0013.68,0007.52,0006.93
2024-01-25 02:50:00,SystemResetWarning,0827.0,4.99,000.00,023.7,022.5,000.0,032.0,025.0,15.6,0004.0,0014.02,0007.51,0006.91
2024-01-25 02:51:00,SystemResetWarning,0827.0,5.00,000.00,023.7,022.6,000.0,032.0,025.0,15.6,0003.9,0014.39,0007.50,0006.88
2024-01-25 02:52:00,SystemResetWarning,0827.0,5.00,000.00,023.7,022.6,000.0,032.0,025.0,15.6,0004.0,0014.70,0007.50,0006.86
2024-01-25 02:53:00,SystemResetWarning,0827.0,5.01,000.00,023.6,022.6,000.0,032.0,025.0,15.7,0003.8,0015.09,0007.52,0006.85
2024-01-25 02:54:00,SystemResetWarning,0827.0,5.00,000.00,023.6,022.6,000.0,032.0,025.0,15.6,0003.8,0014.73,0007.45,0006.81
2024-01-25 02:55:00,SystemResetWarning,0827.0,5.00,000.00,023.6,022.6,000.0,032.0,025.0,15.6,0003.4,0014.50,0007.41,0006.77
2024-01-25 02:56:00,SystemResetWarning,0827.1,5.01,000.00,023.6,022.6,000.0,032.0,025.0,15.6,0003.4,0014.36,0007.43,0006.76
2024-01-25 02:57:00,SystemResetWarning,0827.0,5.00,000.00,023.6,022.6,000.0,032.0,024.9,15.7,0003.2,0013.53,0007.41,0006.74
2024-01-25 02:58:00,SystemResetWarning,0827.0,5.01,000.00,023.6,022.6,000.0,032.0,024.9,15.7,0002.8,0013.00,0007.43,0006.75
2024-01-25 02:59:00,SystemResetWarning,0827.0,5.00,000.00,023.6,022.6,000.0,032.0,024.9,15.7,0003.1,0013.23,0007.40,0006.75
